Location: Macksville High School
(37.9611°N, 99.9654°W)
Time: 16:39:17
(UTC+00:00)

USA 116 - Pass Details

Date: 27 February 2020
Orbit: 405 x 834 km, 97.9° (Epoch: 18 November)

Event Time Altitude Azimuth Distance (km) Brightness Sun altitude
Rises 12:36:38 0° 177° (S) 2,325 7.0 -8.3°
Reaches altitude 10° 12:38:38 10° 183° (S) 1,459 5.9 -7.9°
Maximum altitude 12:41:37 48° 259° (W) 539 3.3 -7.3°
Drops below altitude 10° 12:44:41 10° 336° (NNW) 1,496 5.7 -6.7°
Sets 12:46:46 0° 342° (NNW) 2,394 6.7 -6.3°
